Showing default

QIANFAN-69, 62799

Orbit data source: Space-Track

QIANFAN-69, 62799 is a Chinese payload satellite in LEO that was launched on Thu, 23 Jan 2025 UTC via a CHANG ZHENG 6A launch vehicle from the Taiyaun Space Center, China (TSC). Payload-class satellites include a variety of spacecraft equipped with specific instruments for various scientific and technological missions. These include communications satellites like Starlink; space stations such as the ISS; scientific satellites like the Hubble; Earth observation satellites from companies like Planet Labs, Umbra, and HawkEye 360; GPS; miniature CubeSats for education and research; and military/defense satellites.

Loading next visibility...
Identifier
62799, 2025-016Q
Orbit
LEO
Country
Flag of CNCN / PRC
Related business
Manufacturer
SECM
Mission
Operational Commercial Communications
Bus & Motor
QIANFAN, Unknown motor
Mass
267 kg wet, ~267 kg dry
Launch date (UTC)
2025-01-23 (2 years ago)
Launch vehicle
CHANG ZHENG 6A
Launch site
Taiyaun Space Center, China (TSC)
Object type
Payload
Rocket body
Debris
Shape & HBR
Box + 1 Pan, 5.0 m
Radar Cross Section
13.200 m², Large (>1 m²)

Expand to show TLE details & history
Last TLE update: 8 hours ago

TLE from 8 hours ago
0 QIANFAN-69
1 62799U 25016Q   26257.58199395  .00000027  00000-0  23081-4 0  9995
2 62799  88.9644  74.2640 0013946 268.0607  91.8947 13.51024044 84520
Epoch: 2026-09-14T13:58Z
TLE epoch observation values (Epoch: 2026-09-14T13:58:04.277Z)
Latitude
-0.00001°
Longitude
-128.81405°
Altitude
1,071.804 km
Speed
7.316 km/s
True Right ascension
04h 57m 03s
True Declination
0° 00' 00"
Sunlit
Object was in daylight at epoch
Visualization orbit readout
Latitude
Unknown
Longitude
Unknown
Altitude
Unknown
Speed
Unknown
Apparent Right ascension
Unknown
Apparent Declination
Unknown
Sunlit
N/A
Visualization observer readout
Local Sidereal Time
14:59:03
Azimuth
Unknown
Elevation
Unknown
Doppler factor
Unknown
Orbital elements
Apogee altitude
1,075.925 km
Perigee altitude
1,055.163 km
Semi-major axis
7,443.681 km
Eccentricity
0.00139
Inclination
88.9644°
RAAN
74.264°
Arg. of periapsis
268.0607°
True anomaly
92.05441°
Mean anomaly
91.8947°
Eccentric anomaly
91.97456°
Mean motion
3.37957 °/min
Orbital period
106.52 mins
BSTAR
0.000023081
Loading maneuver chart data...
Computing Atmospheric mass density...
Loading historical data...
Loading historical data...
Loading historical data...
Loading historical data...
Loading historical data...
Loading historical data...
Loading historical data...

Documentation

Showing up to 5 results
|